Flag for U.S.A. Weather past 2 weeks in Trenton, New Jersey, U.S.A.

Now
64 °F

Sunny.


Feels Like: 64 °F
Forecast: 51 / 64 °F
Wind: 16 mph from West

Location: Mercer County Airport

Current Time: Apr 21, 2015 at 6:04:37 PM

Latest Report: Apr 21, 2015 at 4:53 PM


Visibility: 10 mi

Pressure: 29.67 "Hg

Humidity: 27%

Dew point: 29 °F

Location of TrentonLocation

Historic Weather in Trenton — Graph

°F

Trenton temperature yesterday

Maximum temperature yesterday: 71 °F (at 3:53 PM)
Minimum temperature yesterday: 46 °F (at 12:53 AM)
Average temperature yesterday: 57 °F

Past Weeks' High & Low Weather Summary

 TemperatureHumidityPressure
High80 °F (Apr 18, 5:53 PM)97% (Apr 10, 10:53 AM)30.45 "Hg (Apr 10, 10:53 AM)
Low34 °F (Apr 12, 5:53 AM)12% (Apr 15, 4:53 PM)29.52 "Hg (Apr 21, 12:53 AM)
Average55 °F59%30.09 "Hg
* Reported Apr 6 3:53 PM — Apr 21 3:53 PM, Trenton, Weather by CustomWeather, © 2015

Note: Actual official high and low records may vary slightly from our data, if they occured in-between our weather recording intervals... More about our weather records

Advertising

Trenton weather history for previous 24 hours

 ConditionsComfort  
Time TempWeatherWind HumidityBarometerVisibility
3:53 PM
Tue, Apr 21
64 °FSunny.15 mph27%29.67 "Hg10 mi
2:53 PM63 °FPassing clouds.9 mph31%29.67 "Hg10 mi
1:53 PM62 °FSunny.15 mph34%29.67 "Hg10 mi
12:53 PM62 °FSunny.15 mph37%29.67 "Hg10 mi
11:53 AM61 °FPassing clouds.14 mph39%29.68 "Hg10 mi
10:53 AM61 °FPassing clouds.14 mph42%29.67 "Hg10 mi
9:53 AM58 °FPassing clouds.13 mph58%29.67 "Hg10 mi
8:53 AM54 °FPartly sunny.9 mph74%29.66 "Hg10 mi
7:55 AM55 °FHeavy rain. Fog.13 mph87%29.66 "Hg2 mi
7:03 AM57 °FLight rain. Fog.7 mph93%29.62 "Hg3 mi
6:53 AM57 °FFog.6 mph93%29.59 "Hg4 mi
5:53 AM56 °FFog.5 mph90%29.57 "Hg5 mi
4:53 AM56 °FRain. Fog.No wind93%29.54 "Hg4 mi
3:53 AM57 °FLight rain. Fog.No wind90%29.56 "Hg5 mi
2:53 AM58 °FRain. Fog.6 mph90%29.55 "Hg3 mi
2:00 AM60 °FThundershowers. Mostly cloudy.6 mph83%29.59 "Hg10 mi
12:53 AM65 °FOvercast.10 mph76%29.52 "Hg10 mi
11:53 PM
Mon, Apr 20
58 °FClear.3 mph90%29.53 "Hg7 mi
10:53 PM59 °FFog.6 mph93%29.53 "Hg6 mi
9:53 PM59 °FFog.5 mph90%29.56 "Hg4 mi
8:53 PM60 °FFog.6 mph90%29.57 "Hg4 mi
7:53 PM61 °FFog.9 mph87%29.57 "Hg3 mi
6:53 PM63 °FFog.14 mph87%29.57 "Hg5 mi
6:02 PM68 °FBroken clouds.12 mph78%29.59 "Hg10 mi
Weather by CustomWeather, © 2015

See weather overviewHow to use our weather pages